This is the latest recevied weather packets stored in our database for station/object N7JP. If no packets are shown the sender has not sent any weather packets the latest 10 day(s).
| Time | Temp. | Humidity | Pressure | Rain* | Wind** | Luminosity | Snow |
|---|---|---|---|---|---|---|---|
| 1777208302 | 3.89° C | 87% | 1003.7 hPa | 0 mm | - | - | - |
| 1777207401 | 4.44° C | 87% | 1003.7 hPa | 0 mm | - | - | - |
| 1777206498 | 4.44° C | 86% | 1003.7 hPa | 0 mm | - | - | - |
| 1777205571 | 4.44° C | 86% | 1003.7 hPa | 0 mm | - | - | - |
| 1777204670 | 4.44° C | 85% | 1003.7 hPa | 0 mm | - | - | - |
| 1777203755 | 4.44° C | 85% | 1003.8 hPa | 0 mm | - | - | - |
| 1777202852 | 4.44° C | 85% | 1003.8 hPa | 0 mm | - | - | - |
| 1777201932 | 4.44° C | 84% | 1003.8 hPa | 0 mm | - | - | - |
| 1777201031 | 5° C | 83% | 1003.8 hPa | 0 mm | - | - | - |
| 1777200110 | 5° C | 82% | 1003.7 hPa | 0 mm | - | - | - |
| 1777199209 | 5° C | 80% | 1003.7 hPa | 0 mm | - | - | - |
| 1777198307 | 5° C | 81% | 1003.7 hPa | 0 mm | - | - | - |
| 1777197407 | 5° C | 79% | 1003.6 hPa | 0 mm | - | - | - |
| 1777196487 | 5° C | 80% | 1003.7 hPa | 0 mm | - | - | - |
| 1777195585 | 5.56° C | 79% | 1003.7 hPa | 0 mm | - | - | - |
| 1777194684 | 5.56° C | 77% | 1003.7 hPa | 0 mm | - | - | - |
| 1777193782 | 5.56° C | 76% | 1003.8 hPa | 0 mm | - | - | - |
| 1777192879 | 6.11° C | 75% | 1004 hPa | 0 mm | - | - | - |
| 1777191977 | 6.67° C | 74% | 1004 hPa | 0 mm | - | - | - |
| 1777191059 | 6.67° C | 73% | 1004 hPa | 0 mm | - | - | - |
| 1777190137 | 6.67° C | 74% | 1003.9 hPa | 0 mm | - | - | - |
| 1777189238 | 6.67° C | 75% | 1003.8 hPa | 0 mm | - | - | - |
| 1777188315 | 7.22° C | 75% | 1003.7 hPa | 0 mm | - | - | - |
| 1777187412 | 7.22° C | 72% | 1003.7 hPa | 0 mm | - | - | - |
| 1777186510 | 7.22° C | 74% | 1003.7 hPa | 0 mm | - | - | - |
* Rain latest hour (hover to see other rain measurements)
** Current wind speed in m/s (hover to see current wind gust speed)